{"data":{"norad_id":58007,"epoch":"2026-05-24T10:23:52.732608Z","epoch_age_seconds":119925,"freshness":"FRESH","line1":"1 58007U 23153S   26144.43324922  .00000316  00000+0  20998-4 0  9991","line2":"2 58007  43.0017 130.6190 0001217 263.2003  96.8710 15.27583908149041","mean_motion":15.27583908,"eccentricity":0.0001217,"inclination_deg":43.0017,"raan_deg":130.619,"arg_perigee_deg":263.2003,"mean_anomaly_deg":96.871,"bstar":2.0998e-5,"rev_number":14904,"period_min":94.266507552134,"perigee_km":482.20238918294,"apogee_km":483.87239903047,"semimajor_km":6861.1743941067,"source":"CELESTRAK","updated_at":"2026-05-25T13:38:18.492590Z"}}